www.pogodaiklimat.ru

Погода и климат >> Архив погоды >> Парагвай >> Вильяррика


ПОГОДА в Вильяррике

  • Прогноз погоды в Вильяррике
  • Монитор погоды в Вильяррике

АРХИВ ПОГОДЫ в Вильяррике

Время (UTC), дата Ветер
(напр.,м/с)
 
Видим.   Явления Облачность Т
(С)
Тd
(С)
f
(%)
Тe
(С)
Тes
(С)
Комфортность P
(гПа)
Po
(гПа)
Тmin
(С)
Tmax
(С)
R
(мм)
R24
(мм)
S
(см)
09 20.05 штиль 0 20 км 9/0 2000 м
[Ac As]
+20.0 +18.5 91 +23 +23 комфорт 1013.9 994.9
12 20.05 штиль 0 20 км 9/0 2000 м
[Ac As]
+21.2 +19.2 88 +26 +27 душно 1014.6 995.5 +19.5
18 20.05 С 3 20 км 4/0 2000 м
[Ac lent]
+28.6 +20.1 60 +35 +39 очень
душно
1010.7 992.2
00 21.05 СВ 2 20 км 3/0 2000 м
[Ac lent]
+23.2 +20.2 83 +30 +30 очень
душно
1011.2 992.3 +29.0
09 21.05 СВ 2 20 км 9/9 600 м
[Sc]
+22.2 +18.7 81 +28 +28 душно 1011.6 992.7
12 21.05 Ю 2 20 км 10/10 600 м
[Sc]
+21.0 +19.5 91 +26 +26 душно 1012.1 993.1 +21.0
18 21.05 штиль 0 20 км {дождь} 10/10 600 м
[Sc]
+22.4 +20.2 87 +29 +29 очень
душно
1011.2 992.3 3
00 22.05 штиль 0 10 км слаб. дождь {гроза} 10/5 90 м
[Frnb As op]
+20.4 +19.4 94 +24 +24 комфорт 1012.3 993.3 +23.2 15
09 22.05 Ю 3 20 км {дождь} 10/10 90 м
[St]
+18.2 +17.9 98 +19 +19 1012.7 993.5 10
12 22.05 Ю 2 10 км слаб. морось 10/10 90 м
[St]
+18.0 +17.9 99 +19 +19 1015.3 996.0 +18.0 0.7
18 22.05 Ю 2 20 км {морось} 10/10 90 м
[St]
+19.8 +17.1 84 +23 +23 комфорт 1014.3 995.2 0.2
00 23.05 Ю 2 20 км 9/9 600 м
[Sc]
+18.0 +16.4 90 +19 +19 1015.9 996.6 +20.4
12 23.05 Ю 2 10 км слаб. морось 10/10 90 м
[St]
+16.4 +15.7 96 +17 +17 1016.8 997.4 +15.2 0.3
18 23.05 Ю 2 15 км слаб. морось 10/10 90 м
[St]
+17.0 +16.7 98 +17 +17 1014.5 995.2 1
00 24.05 штиль 0 20 км {морось} 10/10 90 м
[St]
+14.8 +14.8 100 +14 +14 1015.1 995.6 +18.0 3
09 24.05 Ю 3 20 км {морось} 10/10 90 м
[St]
+12.6 +11.6 94 +11 +11 1013.3 993.8 3
12 24.05 Ю 2 4000 м слаб. морось 10/10 90 м
[St]
+13.0 +12.8 99 +12 +12 1014.7 995.1 +12.6 2
18 24.05 Ю 2 20 км {морось} 5/5 120 м
[St]
+19.6 +15.0 75 +22 +25 комфорт 1015.2 996.6 1
00 25.05 штиль 0 20 км 1/0 2000 м
[Ac lent]
+15.6 +14.2 91 +15 +15 1016.6 997.2 +20.0
12 25.05 штиль 0 20 км ясно +14.2 +13.5 96 +14 +16 1018.0 998.5 +11.0 1
15 25.05 СВ 2 20 км 1/1 1200 м
[Cu hum]
+19.4 +13.4 68 +21 +30 комфорт 1018.4 999.1
18 25.05 СВ 2 20 км 1/1 1200 м
[Cu hum]
+21.0 +13.8 63 +24 +30 комфорт 1015.5 996.3
21 25.05 СВ 1 20 км ясно +19.8 +13.1 65 +23 +23 комфорт 1014.2 995.0
00 26.05 В 1 20 км ясно +15.8 +12.7 82 +16 +16 1015.6 996.1 +22.0
06 26.05 СВ 2 20 км ясно +13.6 +12.5 93 +13 +13 1013.8 994.3
09 26.05 СВ 2 20 км ясно +13.0 +11.4 90 +12 +12 1013.3 993.7
12 26.05 СВ 2 20 км ясно +15.8 +12.5 81 +16 +18 1014.8 995.3 +13.0
15 26.05 СВ 3 20 км ясно +20.4 +12.6 61 +23 +32 комфорт 1014.7 995.5
18 26.05 СВ 2 20 км 5/0
[Cs]
+25.2 +12.4 45 +27 +33 жарко 1012.6 993.8
21 26.05 СВ 1 20 км 8/0 2000 м
[Ac As]
+23.6 +16.3 64 +27 +27 жарко 1010.3 991.4
00 27.05 СВ 2 20 км 8/0 2000 м
[Ac As]
+22.4 +15.1 63 +26 +26 жарко 1011.0 992.0 +25.4
03 27.05 СВ 2 20 км 8/0 2000 м
[Ac As]
+21.6 +15.6 69 +25 +25 комфорт 1011.8 992.8
06 27.05 СВ 3 20 км 8/0 2000 м
[Ac As]
+20.6 +16.3 76 +24 +24 комфорт 1011.8 992.7

 

Местоположение метеостанции Вильяррика (Парагвай): широта -25.75 долгота -56.43 высота над уровнем моря 161 м.

В архиве по умолчанию представлена погода в Вильяррике за последнюю неделю. Архивные данные за месяц целиком и за предыдущие месяцы, начиная с января 2011 года, Вы можете получить, выбрав интересующий диапазон дат из раскрывающегося списка и нажав кнопку "Ввод!".


*Определитесь, кто Вы:
робот инопланетянин человек

Внимание! Время в таблицах - всемирное. Для получения местного времени необходимо прибавить поправку, которая равна -4 ч.

Смотрите также архив погоды в соседних городах и на ближайших метеорологических станциях:

Погода в Коронель-Овьедо (Парагвай) (34 км)
Погода в Каасапе (Парагвай) (48 км)
Погода в Парагуари (Парагвай) (71 км)
Погода в Куйкуйо (Парагвай) (76 км)
Погода в Асунсьоне (Парагвай) (122 км)
Погода в Сан Эстанислао (Парагвай) (122 км)
Погода в Сан Хуан Батистута (Парагвай) (124 км)
Погода в Аэропорту Гуарани (Парагвай) (162 км)
Погода в Капитан Меса (Парагвай) (180 км)
Погода в Энкарнасьоне (Парагвай) (183 км)

Пояснения к столбцам:

Ветер - указаны скорость ветра в м/с - средняя за 10 мин, порывы в срок и между сроками (в фигурных скобках) и направление, откуда дует ветер: С - северный, СВ - северо-восточный, В - восточный, ЮВ - юго-восточный, Ю - южный, ЮЗ - юго-западный, З - западный, СЗ - северо-западный.
Видимость - горизонтальная дальность видимости в метрах или километрах. При видимости от 1 до 10 км при отсутствии осадков обычно наблюдается дымка, при ухудшении видимости до 1 км и менее - туман. В сухую погоду видимость может ухудшаться дымом, пылью или мглою.
Явления - указаны атмосферные явления, наблюдавшиеся в срок или в последний час перед сроком; фигурными скобками обозначены явления, наблюдавшиеся между сроками (за 1-3 часа до срока); квадратными скобками обозначены град или гололедные отложения с указанием их диаметра в мм.
Облачность - указаны через наклонную черту общая и нижняя облачность в баллах и высота нижней границы облаков в метрах; квадратными скобками обозначены формы облаков: Ci - перистые, Cs - перисто-слоистые, Cc - перисто-кучевые, Ac - высококучевые, As - высокослоистые, Sc - слоисто-кучевые, Ns - слоисто-дождевые, Cu - кучевые, Cb - кучево-дождевые. Подробнее классификацию облаков см. в Атласе облаков (PDF).
T - Температура воздуха - температура, измеренная на высоте 2 м над землей.
Td - Температура точки росы - температура, при понижении до которой содержащийся в воздухе водяной пар достигнет насыщения.
f - Относительная влажность воздуха - влажноcть воздуха, измеренная на высоте 2 м над землей.
Te - Эффективная температура - температура, которую ощущает одетый по сезону человек в тени. Характеристика душности погоды. При расчете учитывается влияние влажности воздуха и скорости ветра на теплоощущения человека.
Tes - Эффективная температура на солнце - температура, которую ощущает человек, с поправкой на солнечный нагрев. Характеристика знойности погоды. Зависит от высоты солнца над горизонтом, облачности и скорости ветра. Ночью, в пасмурную погоду, а также при ветре 12 м/с и более поправка равна нулю.
P - Атмосферное давление - приведенное к уровню моря атмосферное давление.
Po - Атмосферное давление - измеренное на уровне метеостанции атмосферное давление.
Tmin - Минимальная температура - минимум температуры воздуха на высоте 2 м над землей.
Tmax - Максимальная температура - максимум температуры воздуха на высоте 2 м над землей.
R - Количество осадков - Количество выпавших осадков за период времени, мм. При наведении курсора мыши на число - период времени, за который выпало указанное количество осадков.
R24 - Количество осадков - Количество выпавших осадков за 24 часа, мм.
S - Снежный покров - Высота снежного покрова, см. При наведении курсора мыши на число - состояние снежного покрова и степень покрытия местности в баллах.